COSMOS 2434 (721) (32393 NORAD) Tracking and Keplerian Element Data

This shows tracking and keplerian element data for the satellite.

Feedback or suggestion? Click here.




ElementValue
Catalog32393
NameCOSMOS 2434 (721)
Epoch Orbit13995
Epoch Day354.26938641
Epoch Year2025
RAAN197.949
Inclination64.3153
Eccentricity0.0004764
Argument of Perigee71.73
Mean Anonmoly287.081
Mean Motion2.13101449
Decay Rate1.01E-06
L11 32393U 07065A 25354.26938641 .00000101 00000+0 00000+0 0 9996
L22 32393 64.3153 197.9490 0004764 71.7300 287.0810 2.13101449139950



Live tracking and technical data element details for COSMOS 2434 (721) (NORAD 32393). COSMOS 2434 (721) can be tracked NOW for your location showing map with azimuth and elevation plus other details from your city location.







IsCatalogInMostPopularTable: catalog: 32393, numindb: 460
Update: records affected: 1



GetName: 32393 COSMOS 2434 (721)

Hit Count: updated at: Thu, 21 May 2026 12:07:11 GMT